Location: Aranbee
(34.0885°N, 118.2342°W)
Time: 11:23:15
(UTC+00:00)

S-56A Canister/Altair - Pass Details

Date: 02 August 2021
Orbit: 632 x 2500 km, 38.9° (Epoch: 18 September)

Event Time Altitude Azimuth Distance (km) Brightness Sun altitude
Rises 05:11:02 0° 293° (WNW) 6,154 13.2 -24.5°
Reaches altitude 10° 05:15:31 10° 287° (WNW) 5,052 12.5 -25.2°
Maximum altitude 05:28:16 42° 224° (SW) 2,684 10.1 -27.0°
Enters shadow 05:32:30 32° 183° (S) 2,816 9.9 -27.5°
